Wind_Speed
22 19 16 16 17 17 19 21 23 3 3 3 7 11 16 21 24 25 27 24 13 11 9 6 8 11 11 6 32 39 56 53 51 63 46 50 54 54 54 55 53 51 45 49
24 21 18 18 18 17 16 20 22 2 2 5 8 10 11 14 15 19 24 23 21 15 5 3 6 7 9 6 8 36 52 54 51 48 53 39 52 49 58 59 57 54 54 49
23 22 21 18 20 19 17 17 19 18 10 6 9 11 11 7 9 14 17 22 21 19 5 3 6 1 4 6 5 28 46 52 50 53 47 42 50 43 42 57 57 59 52 55
21 20 20 21 20 19 18 16 17 19 19 14 18 15 18 12 8 12 13 21 18 16 8 15 9 4 5 6 3 18 31 48 43 51 31 40 36 40 37 55 56 60 60 61
23 20 20 19 21 20 19 19 18 17 17 19 17 13 17 13 12 13 14 14 16 15 14 16 16 14 6 13 11 14 23 26 42 39 33 33 19 48 54 40 50 65 63 68
23 22 19 19 20 20 20 19 18 18 18 18 16 15 16 17 14 11 12 11 10 15 8 9 10 11 7 13 16 20 36 18 8 32 20 20 16 58 48 37 37 46 59 65
26 25 24 23 23 22 20 20 19 19 19 16 18 15 14 12 11 13 15 16 17 15 15 6 5 8 5 10 22 7 7 2 7 2 10 18 26 11 34 49 41 25 49 67
26 25 26 24 24 22 23 22 23 19 21 21 18 18 13 14 12 12 13 13 14 14 16 16 16 12 7 5 7 2 8 7 9 15 11 12 14 10 17 17 20 22 21 21
32 24 28 26 25 27 25 24 23 24 22 22 19 17 18 17 15 14 13 12 12 12 12 12 11 7 6 6 2 2 6 6 10 10 13 17 17 16 18 18 22 22 24 25
33 29 27 28 27 28 27 28 27 25 27 24 21 16 19 18 16 17 16 15 13 12 11 10 10 11 11 9 9 8 6 6 7 14 19 18 21 25 24 26 28 30 32 29
36 32 28 31 32 31 29 30 33 32 26 28 26 22 17 17 19 18 18 16 15 14 14 13 11 10 11 13 13 14 15 16 16 18 21 22 25 28 30 32 35 37 40 42
39 38 32 28 31 33 32 34 38 39 32 27 30 22 24 21 19 22 19 18 18 18 18 18 18 18 18 19 20 21 22 23 24 24 26 28 32 33 34 35 36 38 40 41
40 39 40 34 34 35 34 35 36 37 35 31 34 27 26 27 24 25 24 24 22 23 23 22 23 23 23 25 27 28 30 31 33 34 35 35 37 37 38 40 41 43 45 48
45 38 37 38 38 41 34 33 34 36 36 38 37 34 32 29 26 28 30 31 28 28 27 28 28 28 30 32 32 32 33 35 36 38 41 42 44 45 46 47 47 49 51 52
41 41 39 37 40 39 37 33 34 37 36 39 28 40 39 36 33 31 31 32 32 31 33 33 34 35 37 39 41 44 45 45 46 47 47 48 50 51 53 55 55 56 58 59
40 42 42 37 38 39 34 32 36 36 35 35 34 34 35 36 35 35 34 32 31 34 35 37 39 42 43 45 47 50 52 55 57 59 59 61 62 62 64 66 66 66 67 67
40 42 41 40 40 40 36 33 32 32 32 29 29 27 28 29 30 30 32 33 33 36 39 43 45 48 51 53 55 57 59 61 63 65 67 69 70 72 73 74 74 75 77 77
39 39 39 40 41 43 36 33 34 33 29 26 27 27 24 24 28 31 33 36 39 42 45 48 51 53 55 58 60 63 64 65 66 69 72 74 77 79 81 83 85 87 87 87
40 42 43 43 43 43 35 34 36 36 32 29 27 29 31 34 36 38 41 44 47 49 51 54 56 58 60 62 64 66 67 69 72 75 77 80 82 85 88 90 93 95 97 98
39 42 44 41 42 43 41 41 42 43 39 38 39 38 40 41 43 45 47 50 52 55 57 59 61 63 64 65 66 68 71 74 77 79 83 86 88 90 92 94 97 99 101 102
40 43 44 41 43 44 41 44 45 42 43 44 43 43 45 47 48 50 52 55 57 59 61 63 65 66 68 69 71 74 77 80 83 84 87 89 92 95 98 100 103 104 107 109
43 44 44 44 45 45 44 45 42 43 45 46 48 48 49 51 53 55 57 59 61 62 64 66 68 71 73 75 77 80 82 84 87 89 92 94 96 99 102 104 106 109 110 110
43 46 48 47 46 44 43 42 43 44 47 48 49 51 52 54 56 57 59 61 63 66 68 71 73 76 78 80 82 85 87 89 90 93 94 97 98 100 100 99 95 88 82 79
53 50 47 47 43 45 46 46 47 49 50 51 52 52 53 55 58 60 62 65 67 70 73 76 78 80 83 84 87 88 90 91 91 91 90 88 82 74 68 63 58 55 50 49
52 50 46 48 46 43 45 48 49 51 52 53 53 53 55 57 60 62 65 68 71 73 77 79 81 83 84 86 86 88 88 85 81 75 65 56 50 47 44 43 42 42 43 45
50 50 49 51 50 51 50 49 50 52 53 53 54 56 58 61 64 67 69 72 75 77 79 81 82 83 84 84 82 80 74 64 55 48 45 44 43 42 42 42 41 44 45 47
Wind_Direction
349 344 343 353 1 359 0 357 6 155 69 32 17 3 11 6 24 9 4 9 348 341 340 306 242 242 223 245 214 200 198 196 203 210 205 207 211 219 227 230 231 232 237 238
344 343 342 343 352 349 350 359 9 345 254 313 326 345 5 360 17 16 10 27 16 357 0 306 273 261 222 216 224 197 197 193 196 210 213 211 231 222 223 227 228 231 233 239
339 341 343 340 341 342 339 344 356 358 307 291 321 317 333 1 1 345 18 5 9 22 60 315 322 202 313 253 208 193 195 193 189 191 205 228 222 228 225 224 227 229 231 235
334 337 341 338 333 336 331 326 339 347 354 312 309 321 341 356 16 30 12 2 351 18 49 46 43 202 51 137 251 173 192 190 191 203 230 225 233 229 239 230 223 231 234 237
325 329 334 339 329 326 327 324 323 331 338 346 354 359 15 23 10 352 346 1 28 25 65 88 72 54 73 91 119 158 187 185 205 220 252 245 237 243 245 243 234 239 238 238
322 318 320 324 326 322 319 318 316 319 319 321 335 354 12 28 32 23 25 17 4 351 37 91 36 91 61 160 169 157 168 167 39 212 227 246 273 234 242 246 259 252 241 233
324 315 310 311 317 320 313 312 305 308 306 310 316 335 354 14 22 24 30 40 39 17 9 111 134 142 152 98 147 141 27 315 333 286 270 304 330 296 247 258 258 279 240 239
331 316 306 302 303 310 311 307 306 299 302 299 307 315 330 334 348 358 1 10 21 29 28 31 25 129 153 169 156 119 160 9 228 206 233 266 271 277 310 293 289 294 302 267
335 328 313 307 301 300 305 305 299 295 294 293 294 301 306 315 327 334 338 342 353 2 6 7 22 19 11 356 293 208 187 231 247 248 272 249 254 267 279 284 262 242 252 262
330 333 318 306 300 297 298 298 296 293 294 291 290 292 297 299 299 305 313 317 320 327 338 340 335 332 332 339 335 334 323 297 271 268 282 272 270 268 268 265 263 266 262 254
328 333 326 319 312 301 294 291 289 284 279 285 284 285 286 288 288 287 295 297 307 314 316 319 316 312 313 314 311 304 302 300 294 282 279 275 273 270 269 270 268 266 267 273
329 332 328 322 312 305 301 297 293 289 273 274 279 276 282 281 279 283 286 283 287 295 299 302 304 303 303 301 299 297 295 291 283 279 275 274 276 277 278 276 272 271 271 270
329 330 323 327 322 313 310 304 297 291 286 275 273 277 278 278 276 282 284 288 290 287 286 285 286 286 288 291 293 293 292 292 292 290 289 288 285 283 279 277 276 276 275 275
326 330 323 328 327 321 321 312 304 297 297 295 274 268 270 272 274 274 281 283 288 289 289 291 292 292 295 295 292 289 287 285 284 284 284 283 283 283 283 282 281 280 278 278
328 329 322 326 326 322 320 317 308 303 301 294 294 278 274 274 272 275 273 278 285 286 291 295 295 296 298 298 299 299 298 296 295 293 290 288 285 284 283 282 283 283 283 282
327 324 322 325 323 322 321 315 309 306 305 302 295 291 284 279 279 280 279 280 281 285 290 292 293 295 296 295 295 295 295 295 294 294 293 293 293 293 292 291 290 289 287 285
322 321 320 324 319 320 318 318 310 306 305 305 298 292 289 286 284 283 282 286 287 290 291 292 294 294 294 294 294 293 292 291 290 290 289 289 289 289 290 289 289 289 289 288
321 320 318 322 320 319 322 323 315 310 308 307 300 295 292 284 284 285 286 286 288 289 290 291 292 292 292 291 291 290 290 288 287 287 286 286 286 286 285 285 286 285 285 285
319 319 318 315 318 319 315 316 312 308 312 306 298 295 291 290 290 290 290 290 290 291 291 291 291 292 291 291 290 290 289 289 290 289 288 287 286 285 285 284 284 283 282 282
318 318 317 314 312 312 313 310 308 306 308 302 302 300 297 296 294 293 292 291 291 292 293 294 293 292 291 291 290 290 290 290 289 289 288 287 287 287 286 285 285 285 284 283
315 315 315 310 306 307 306 303 301 302 302 301 298 295 296 296 295 294 293 292 292 293 293 293 293 293 293 293 293 293 292 292 291 291 290 289 288 287 286 286 286 285 285 284
307 311 312 310 307 309 307 303 299 296 297 298 299 298 296 295 294 293 293 293 294 295 296 295 295 294 294 293 293 294 293 293 292 292 291 290 289 288 287 286 286 285 285 284
303 307 308 308 302 303 301 296 295 296 296 295 295 295 295 295 295 295 296 296 297 297 296 296 296 296 296 296 296 295 294 294 293 293 292 292 291 290 289 287 287 286 286 285
314 305 307 306 305 304 300 297 296 295 295 295 295 295 296 296 297 298 298 297 297 297 297 297 297 297 297 297 296 295 295 295 295 294 293 292 292 291 290 290 289 289 289 289
308 309 303 304 303 301 299 294 294 295 296 297 298 298 297 296 296 296 296 297 297 297 297 297 298 297 297 296 296 296 296 296 295 295 294 293 293 293 295 295 295 295 295 294
305 306 305 303 299 298 297 293 294 296 297 297 297 297 298 297 297 298 297 297 297 298 297 297 297 296 296 297 297 297 297 296 294 294 293 294 294 295 295 295 295 296 296 295
Height
5789 5784 5779 5774 5769 5763 5759 5755 5748 5744 5740 5737 5735 5732 5725 5718 5711 5705 5697 5689 5682 5676 5671 5668 5668 5667 5665 5664 5667 5673 5687 5701 5710 5715 5716 5737 5741 5748 5755 5761 5765 5769 5773 5777
5788 5782 5777 5773 5769 5763 5758 5753 5748 5743 5740 5736 5733 5730 5724 5717 5709 5704 5697 5691 5683 5677 5673 5670 5667 5666 5665 5667 5666 5673 5682 5694 5704 5710 5725 5735 5736 5737 5743 5747 5753 5759 5763 5767
5785 5781 5777 5773 5768 5763 5758 5753 5748 5743 5738 5735 5729 5725 5722 5717 5710 5704 5699 5693 5684 5678 5671 5670 5668 5666 5666 5667 5667 5670 5678 5691 5700 5709 5717 5721 5727 5727 5723 5735 5741 5749 5753 5757
5783 5779 5774 5770 5765 5761 5756 5751 5747 5742 5737 5732 5727 5724 5720 5714 5710 5706 5701 5695 5689 5682 5677 5673 5669 5669 5669 5669 5672 5675 5684 5695 5703 5710 5714 5718 5721 5723 5721 5724 5731 5739 5743 5747
5779 5775 5771 5767 5764 5759 5756 5751 5746 5741 5737 5731 5727 5723 5717 5711 5709 5706 5703 5699 5692 5688 5684 5680 5677 5675 5675 5673 5677 5680 5688 5699 5702 5705 5705 5715 5712 5713 5714 5718 5725 5729 5731 5736
5775 5771 5769 5765 5760 5757 5752 5749 5745 5740 5736 5731 5726 5723 5718 5713 5711 5708 5705 5701 5697 5692 5689 5686 5683 5681 5679 5678 5680 5687 5695 5699 5702 5706 5707 5709 5706 5705 5711 5711 5712 5716 5718 5721
5770 5766 5763 5760 5756 5753 5749 5746 5742 5739 5734 5731 5725 5721 5718 5715 5712 5709 5704 5701 5698 5695 5690 5688 5688 5686 5685 5684 5686 5688 5690 5693 5696 5699 5701 5703 5701 5700 5702 5705 5709 5708 5708 5708
5769 5763 5759 5755 5752 5749 5746 5743 5740 5735 5733 5729 5724 5721 5718 5714 5712 5708 5705 5702 5699 5697 5693 5690 5688 5688 5689 5688 5687 5687 5690 5692 5695 5695 5697 5697 5699 5696 5697 5700 5702 5699 5699 5700
5762 5761 5753 5750 5747 5745 5741 5738 5735 5731 5728 5725 5723 5719 5717 5713 5710 5708 5705 5702 5699 5698 5696 5693 5692 5692 5691 5689 5691 5689 5689 5691 5692 5690 5693 5694 5693 5693 5693 5693 5694 5692 5694 5695
5757 5756 5750 5744 5741 5737 5735 5732 5728 5726 5723 5721 5719 5717 5714 5711 5708 5706 5704 5701 5699 5697 5695 5694 5692 5690 5689 5688 5686 5686 5687 5689 5689 5690 5689 5689 5689 5688 5687 5687 5688 5686 5686 5686
5752 5749 5746 5739 5735 5731 5728 5724 5721 5718 5716 5714 5713 5714 5710 5707 5704 5702 5701 5698 5696 5694 5693 5692 5690 5689 5687 5685 5684 5684 5682 5682 5682 5682 5682 5683 5684 5684 5682 5680 5678 5677 5679 5677
5749 5745 5739 5735 5729 5724 5721 5717 5713 5709 5708 5706 5704 5708 5705 5702 5699 5697 5696 5695 5693 5691 5688 5687 5686 5684 5683 5683 5681 5680 5679 5678 5678 5677 5677 5676 5675 5674 5673 5671 5670 5668 5667 5667
5741 5738 5731 5728 5725 5719 5715 5711 5706 5702 5700 5699 5695 5698 5696 5696 5693 5690 5689 5687 5687 5686 5684 5682 5681 5680 5678 5676 5675 5674 5673 5671 5668 5667 5665 5663 5663 5662 5661 5661 5659 5657 5656 5654
5736 5733 5727 5723 5717 5711 5709 5704 5699 5695 5693 5691 5688 5685 5685 5686 5685 5683 5681 5679 5679 5677 5676 5674 5672 5671 5668 5666 5666 5665 5664 5664 5662 5660 5658 5656 5653 5651 5649 5647 5645 5644 5642 5641
5729 5727 5719 5717 5711 5705 5701 5698 5693 5689 5687 5679 5684 5677 5677 5676 5675 5674 5672 5671 5669 5668 5666 5664 5662 5660 5658 5655 5652 5649 5647 5645 5643 5641 5640 5639 5638 5637 5635 5633 5629 5627 5624 5622
5724 5719 5713 5712 5704 5698 5695 5691 5685 5682 5678 5674 5671 5669 5668 5667 5666 5664 5664 5662 5661 5659 5657 5655 5652 5650 5648 5645 5642 5639 5636 5632 5628 5625 5623 5619 5616 5614 5611 5608 5605 5603 5602 5601
5717 5711 5705 5703 5697 5692 5688 5684 5679 5675 5670 5666 5663 5662 5659 5658 5657 5656 5654 5653 5651 5649 5647 5644 5641 5637 5634 5631 5628 5625 5621 5617 5613 5608 5604 5600 5597 5593 5588 5585 5582 5579 5575 5572
5709 5703 5697 5694 5689 5684 5680 5675 5670 5666 5663 5658 5656 5655 5652 5651 5649 5647 5645 5643 5641 5638 5635 5632 5628 5625 5622 5618 5614 5609 5604 5601 5597 5592 5586 5582 5576 5570 5566 5560 5555 5552 5551 5548
5700 5695 5689 5685 5681 5677 5675 5669 5666 5661 5659 5652 5648 5647 5645 5643 5640 5638 5635 5632 5628 5625 5621 5617 5614 5610 5606 5602 5597 5592 5586 5581 5575 5569 5564 5560 5554 5548 5541 5536 5530 5524 5522 5518
5693 5687 5682 5676 5671 5667 5666 5661 5656 5652 5650 5646 5643 5639 5635 5632 5629 5626 5622 5618 5614 5610 5606 5601 5597 5593 5588 5583 5579 5573 5568 5562 5556 5550 5543 5535 5528 5523 5517 5511 5504 5498 5492 5488
5684 5678 5672 5666 5661 5659 5656 5651 5646 5643 5641 5634 5630 5627 5625 5622 5618 5613 5608 5604 5599 5594 5589 5584 5579 5573 5568 5563 5557 5551 5545 5539 5532 5525 5517 5510 5503 5497 5488 5481 5473 5467 5461 5455
5674 5668 5664 5658 5651 5648 5645 5640 5636 5632 5627 5623 5619 5615 5610 5607 5602 5598 5593 5588 5583 5578 5572 5566 5559 5552 5546 5540 5534 5526 5519 5512 5505 5497 5489 5481 5474 5466 5460 5453 5445 5437 5428 5421
5663 5660 5653 5649 5642 5637 5632 5627 5623 5619 5615 5610 5606 5602 5597 5593 5588 5584 5578 5573 5567 5561 5554 5547 5539 5531 5523 5516 5509 5501 5493 5486 5477 5469 5460 5452 5443 5434 5425 5418 5410 5404 5397 5392
5653 5645 5641 5635 5632 5625 5619 5615 5611 5606 5602 5597 5592 5587 5583 5578 5573 5568 5562 5555 5549 5542 5535 5527 5519 5510 5500 5491 5482 5474 5468 5459 5450 5441 5431 5422 5414 5406 5399 5392 5387 5382 5377 5373
5641 5633 5627 5623 5618 5611 5606 5602 5597 5593 5588 5584 5579 5573 5568 5562 5556 5550 5543 5536 5529 5522 5514 5505 5495 5486 5477 5467 5457 5447 5440 5432 5423 5414 5406 5400 5394 5388 5384 5378 5373 5369 5365 5360
5627 5621 5614 5609 5604 5598 5593 5588 5583 5579 5574 5569 5564 5558 5553 5547 5540 5533 5525 5517 5508 5499 5491 5482 5473 5463 5453 5443 5432 5422 5416 5409 5402 5397 5391 5386 5381 5376 5371 5367 5364 5357 5353 5348